Time,TemperatureF,DewpointF,PressureIn,WindDirection,WindDirectionDegrees,WindSpeedMPH,WindSpeedGustMPH,Humidity,HourlyPrecipIn,Conditions,Clouds,dailyrainin,SolarRadiationWatts/m^2,SoftwareType,DateUTC
2013-04-05 00:23:00,50.0,47.0,-100.00,ESE,117,8.0,12.0,90,0.00,,,0.00,0.000000,,2013-04-05 10:23:00,
2013-04-05 00:32:00,50.0,47.0,-100.00,ESE,117,8.0,12.0,90,0.00,,,0.00,0.000000,,2013-04-05 10:32:00,
2013-04-05 00:42:00,50.0,47.0,-100.00,ESE,117,8.0,12.0,90,0.00,,,0.00,0.000000,,2013-04-05 10:42:00,
2013-04-05 00:52:00,50.0,47.0,-100.00,ESE,117,8.0,12.0,90,0.00,,,0.00,0.000000,,2013-04-05 10:52:00,
2013-04-05 01:22:00,51.0,48.0,-100.00,ESE,117,9.0,12.0,88,0.00,,,0.00,0.000000,,2013-04-05 11:22:00,
2013-04-05 01:32:00,51.0,48.0,-100.00,ESE,117,9.0,12.0,88,0.00,,,0.00,0.000000,,2013-04-05 11:32:00,
2013-04-05 01:42:00,51.0,48.0,-100.00,ESE,117,9.0,12.0,88,0.00,,,0.00,0.000000,,2013-04-05 11:42:00,
2013-04-05 01:52:00,51.0,48.0,-100.00,ESE,117,9.0,12.0,88,0.00,,,0.00,0.000000,,2013-04-05 11:52:00,
2013-04-05 02:22:00,50.0,47.0,-100.00,ESE,118,10.0,12.0,90,0.00,,,0.00,0.000000,,2013-04-05 12:22:00,
2013-04-05 02:32:00,50.0,47.0,-100.00,ESE,118,10.0,12.0,90,0.00,,,0.00,0.000000,,2013-04-05 12:32:00,
2013-04-05 02:42:00,50.0,47.0,-100.00,ESE,118,10.0,12.0,90,0.00,,,0.00,0.000000,,2013-04-05 12:42:00,
2013-04-05 02:52:00,50.0,47.0,-100.00,ESE,118,10.0,12.0,90,0.00,,,0.00,0.000000,,2013-04-05 12:52:00,
2013-04-05 03:22:00,49.0,46.0,-100.00,SE,124,12.0,15.0,88,0.00,,,0.00,0.000000,,2013-04-05 13:22:00,
2013-04-05 03:32:00,49.0,46.0,-100.00,SE,124,12.0,15.0,88,0.00,,,0.00,0.000000,,2013-04-05 13:32:00,
2013-04-05 03:42:00,49.0,46.0,-100.00,SE,124,12.0,15.0,88,0.00,,,0.00,0.000000,,2013-04-05 13:42:00,
2013-04-05 03:52:00,49.0,46.0,-100.00,SE,124,12.0,15.0,88,0.00,,,0.00,0.000000,,2013-04-05 13:52:00,
2013-04-05 04:22:00,48.0,44.0,-100.00,SE,125,13.0,19.0,87,0.00,,,0.00,0.000000,,2013-04-05 14:22:00,
2013-04-05 04:36:00,48.0,44.0,-100.00,SE,125,13.0,19.0,87,0.00,,,0.00,0.000000,,2013-04-05 14:36:00,
2013-04-05 04:42:00,48.0,44.0,-100.00,SE,125,13.0,19.0,87,0.00,,,0.00,0.000000,,2013-04-05 14:42:00,
2013-04-05 04:52:00,48.0,44.0,-100.00,SE,125,13.0,19.0,87,0.00,,,0.00,0.000000,,2013-04-05 14:52:00,
2013-04-05 05:23:00,50.0,46.0,-100.00,ESE,121,10.0,18.0,87,0.00,,,0.00,0.000000,,2013-04-05 15:23:00,
2013-04-05 05:33:00,50.0,46.0,-100.00,ESE,121,10.0,18.0,87,0.00,,,0.00,0.000000,,2013-04-05 15:33:00,
2013-04-05 05:42:00,50.0,46.0,-100.00,ESE,121,10.0,18.0,87,0.00,,,0.00,0.000000,,2013-04-05 15:42:00,
2013-04-05 05:52:00,50.0,46.0,-100.00,ESE,121,10.0,18.0,87,0.00,,,0.00,0.000000,,2013-04-05 15:52:00,
2013-04-05 06:23:00,54.0,48.0,-100.00,SE,129,11.0,17.0,81,0.00,,,0.00,0.000000,,2013-04-05 16:23:00,
2013-04-05 06:32:00,54.0,48.0,-100.00,SE,129,11.0,17.0,81,0.00,,,0.00,0.000000,,2013-04-05 16:32:00,
2013-04-05 06:42:00,54.0,48.0,-100.00,SE,129,11.0,17.0,81,0.00,,,0.00,0.000000,,2013-04-05 16:42:00,
2013-04-05 06:52:00,54.0,48.0,-100.00,SE,129,11.0,17.0,81,0.00,,,0.00,0.000000,,2013-04-05 16:52:00,
2013-04-05 07:23:00,57.0,49.0,-100.00,ESE,110,10.0,21.0,75,0.00,,,0.00,24.000000,,2013-04-05 17:23:00,
2013-04-05 07:32:00,57.0,49.0,-100.00,ESE,110,10.0,21.0,75,0.00,,,0.00,24.000000,,2013-04-05 17:32:00,
2013-04-05 07:45:00,57.0,49.0,-100.00,ESE,110,10.0,21.0,75,0.00,,,0.00,24.000000,,2013-04-05 17:45:00,
2013-04-05 07:52:00,57.0,49.0,-100.00,ESE,110,10.0,21.0,75,0.00,,,0.00,24.000000,,2013-04-05 17:52:00,
2013-04-05 08:22:00,62.0,46.0,-100.00,ESE,103,6.0,23.0,55,0.00,,,0.00,192.000000,,2013-04-05 18:22:00,
2013-04-05 08:32:00,62.0,46.0,-100.00,ESE,103,6.0,23.0,55,0.00,,,0.00,192.000000,,2013-04-05 18:32:00,
2013-04-05 08:42:00,62.0,46.0,-100.00,ESE,103,6.0,23.0,55,0.00,,,0.00,192.000000,,2013-04-05 18:42:00,
2013-04-05 08:52:00,62.0,46.0,-100.00,ESE,103,6.0,23.0,55,0.00,,,0.00,192.000000,,2013-04-05 18:52:00,
2013-04-05 09:22:00,65.0,48.0,-100.00,NW,321,6.0,12.0,54,0.00,,,0.00,433.000000,,2013-04-05 19:22:00,
2013-04-05 09:32:00,65.0,48.0,-100.00,NW,321,6.0,12.0,54,0.00,,,0.00,433.000000,,2013-04-05 19:32:00,
2013-04-05 09:42:00,65.0,48.0,-100.00,NW,321,6.0,12.0,54,0.00,,,0.00,433.000000,,2013-04-05 19:42:00,
2013-04-05 09:52:00,65.0,48.0,-100.00,NW,321,6.0,12.0,54,0.00,,,0.00,433.000000,,2013-04-05 19:52:00,
2013-04-05 10:22:00,68.0,50.0,-100.00,NW,307,9.0,15.0,52,0.00,,,0.00,759.000000,,2013-04-05 20:22:00,
2013-04-05 10:32:00,68.0,50.0,-100.00,NW,307,9.0,15.0,52,0.00,,,0.00,759.000000,,2013-04-05 20:32:00,
2013-04-05 10:42:00,68.0,50.0,-100.00,NW,307,9.0,15.0,52,0.00,,,0.00,759.000000,,2013-04-05 20:42:00,
2013-04-05 10:52:00,68.0,50.0,-100.00,NW,307,9.0,15.0,52,0.00,,,0.00,759.000000,,2013-04-05 20:52:00,
2013-04-05 11:23:00,68.0,54.0,-100.00,NW,310,11.0,19.0,61,0.00,,,0.00,875.000000,,2013-04-05 21:23:00,
2013-04-05 11:33:00,68.0,54.0,-100.00,NW,310,11.0,19.0,61,0.00,,,0.00,875.000000,,2013-04-05 21:33:00,
2013-04-05 11:42:00,68.0,54.0,-100.00,NW,310,11.0,19.0,61,0.00,,,0.00,875.000000,,2013-04-05 21:42:00,
2013-04-05 11:53:00,68.0,54.0,-100.00,NW,310,11.0,19.0,61,0.00,,,0.00,875.000000,,2013-04-05 21:53:00,
2013-04-05 12:23:00,67.0,54.0,-100.00,NW,305,11.0,19.0,62,0.00,,,0.00,874.000000,,2013-04-05 22:23:00,
2013-04-05 12:33:00,67.0,54.0,-100.00,NW,305,11.0,19.0,62,0.00,,,0.00,874.000000,,2013-04-05 22:33:00,
2013-04-05 12:42:00,67.0,54.0,-100.00,NW,305,11.0,19.0,62,0.00,,,0.00,874.000000,,2013-04-05 22:42:00,
2013-04-05 12:52:00,67.0,54.0,-100.00,NW,305,11.0,19.0,62,0.00,,,0.00,874.000000,,2013-04-05 22:52:00,
2013-04-05 13:22:00,68.0,54.0,-100.00,NW,307,13.0,22.0,60,0.00,,,0.00,876.000000,,2013-04-05 23:22:00,
2013-04-05 13:32:00,68.0,54.0,-100.00,NW,307,13.0,22.0,60,0.00,,,0.00,876.000000,,2013-04-05 23:32:00,
2013-04-05 13:42:00,68.0,54.0,-100.00,NW,307,13.0,22.0,60,0.00,,,0.00,876.000000,,2013-04-05 23:42:00,
2013-04-05 13:52:00,68.0,54.0,-100.00,NW,307,13.0,22.0,60,0.00,,,0.00,876.000000,,2013-04-05 23:52:00,
2013-04-05 14:22:00,68.0,57.0,-100.00,NW,319,13.0,21.0,69,0.00,,,0.00,489.000000,,2013-04-06 00:22:00,
2013-04-05 14:32:00,68.0,57.0,-100.00,NW,319,13.0,21.0,69,0.00,,,0.00,489.000000,,2013-04-06 00:32:00,
2013-04-05 14:42:00,68.0,57.0,-100.00,NW,319,13.0,21.0,69,0.00,,,0.00,489.000000,,2013-04-06 00:42:00,
2013-04-05 14:52:00,68.0,57.0,-100.00,NW,319,13.0,21.0,69,0.00,,,0.00,489.000000,,2013-04-06 00:52:00,
2013-04-05 15:22:00,65.0,59.0,-100.00,NW,319,10.0,20.0,80,0.00,,,0.00,322.000000,,2013-04-06 01:22:00,
2013-04-05 15:32:00,65.0,59.0,-100.00,NW,319,10.0,20.0,80,0.00,,,0.00,322.000000,,2013-04-06 01:32:00,
2013-04-05 15:42:00,65.0,59.0,-100.00,NW,319,10.0,20.0,80,0.00,,,0.00,322.000000,,2013-04-06 01:42:00,
2013-04-05 15:52:00,65.0,59.0,-100.00,NW,319,10.0,20.0,80,0.00,,,0.00,322.000000,,2013-04-06 01:52:00,
2013-04-05 16:22:00,63.0,58.0,-100.00,NNW,331,8.0,15.0,85,0.00,,,0.00,74.000000,,2013-04-06 02:22:00,
2013-04-05 16:32:00,63.0,58.0,-100.00,NNW,331,8.0,15.0,85,0.00,,,0.00,74.000000,,2013-04-06 02:32:00,
2013-04-05 16:42:00,63.0,58.0,-100.00,NNW,331,8.0,15.0,85,0.00,,,0.00,74.000000,,2013-04-06 02:42:00,
2013-04-05 16:52:00,63.0,58.0,-100.00,NNW,331,8.0,15.0,85,0.00,,,0.00,74.000000,,2013-04-06 02:52:00,
2013-04-05 17:22:00,62.0,59.0,-100.00,NW,314,6.0,11.0,90,0.00,,,0.00,47.000000,,2013-04-06 03:22:00,
2013-04-05 17:33:00,62.0,59.0,-100.00,NW,314,6.0,11.0,90,0.00,,,0.00,47.000000,,2013-04-06 03:33:00,
2013-04-05 17:42:00,62.0,59.0,-100.00,NW,314,6.0,11.0,90,0.00,,,0.00,47.000000,,2013-04-06 03:42:00,
2013-04-05 17:52:00,62.0,59.0,-100.00,NW,314,6.0,11.0,90,0.00,,,0.00,47.000000,,2013-04-06 03:52:00,
2013-04-05 18:23:00,61.0,59.0,-100.00,NW,317,5.0,7.0,93,0.00,,,0.00,30.000000,,2013-04-06 04:23:00,
2013-04-05 18:32:00,61.0,59.0,-100.00,NW,317,5.0,7.0,93,0.00,,,0.00,30.000000,,2013-04-06 04:32:00,
2013-04-05 18:42:00,61.0,59.0,-100.00,NW,317,5.0,7.0,93,0.00,,,0.00,30.000000,,2013-04-06 04:42:00,
2013-04-05 18:52:00,61.0,59.0,-100.00,NW,317,5.0,7.0,93,0.00,,,0.00,30.000000,,2013-04-06 04:52:00,
2013-04-05 19:22:00,59.0,58.0,-100.00,NW,313,5.0,7.0,97,0.00,,,0.00,5.000000,,2013-04-06 05:22:00,
2013-04-05 19:32:00,59.0,58.0,-100.00,NW,313,5.0,7.0,97,0.00,,,0.00,5.000000,,2013-04-06 05:32:00,
2013-04-05 19:42:00,59.0,58.0,-100.00,NW,313,5.0,7.0,97,0.00,,,0.00,5.000000,,2013-04-06 05:42:00,
2013-04-05 19:51:00,59.0,58.0,-100.00,NW,313,5.0,7.0,97,0.00,,,0.00,5.000000,,2013-04-06 05:51:00,
2013-04-05 20:22:00,59.0,58.0,-100.00,WNW,300,6.0,8.0,97,0.00,,,0.00,0.000000,,2013-04-06 06:22:00,
2013-04-05 20:32:00,59.0,58.0,-100.00,WNW,300,6.0,8.0,97,0.00,,,0.00,0.000000,,2013-04-06 06:32:00,
2013-04-05 20:42:00,59.0,58.0,-100.00,WNW,300,6.0,8.0,97,0.00,,,0.00,0.000000,,2013-04-06 06:42:00,
2013-04-05 20:52:00,59.0,58.0,-100.00,WNW,300,6.0,8.0,97,0.00,,,0.00,0.000000,,2013-04-06 06:52:00,
2013-04-05 21:22:00,57.0,56.0,-100.00,WNW,298,1.0,8.0,97,0.00,,,0.00,0.000000,,2013-04-06 07:22:00,
2013-04-05 21:32:00,57.0,56.0,-100.00,WNW,298,1.0,8.0,97,0.00,,,0.00,0.000000,,2013-04-06 07:32:00,
2013-04-05 21:42:00,57.0,56.0,-100.00,WNW,298,1.0,8.0,97,0.00,,,0.00,0.000000,,2013-04-06 07:42:00,
2013-04-05 21:52:00,57.0,56.0,-100.00,WNW,298,1.0,8.0,97,0.00,,,0.00,0.000000,,2013-04-06 07:52:00,
2013-04-05 22:22:00,55.0,53.0,-100.00,ENE,67,9.0,12.0,94,0.00,,,0.00,0.000000,,2013-04-06 08:22:00,
2013-04-05 22:32:00,55.0,53.0,-100.00,ENE,67,9.0,12.0,94,0.00,,,0.00,0.000000,,2013-04-06 08:32:00,
2013-04-05 22:42:00,55.0,53.0,-100.00,ENE,67,9.0,12.0,94,0.00,,,0.00,0.000000,,2013-04-06 08:42:00,
2013-04-05 22:52:00,55.0,53.0,-100.00,ENE,67,9.0,12.0,94,0.00,,,0.00,0.000000,,2013-04-06 08:52:00,
2013-04-05 23:22:00,54.0,51.0,-100.00,ESE,105,4.0,8.0,90,0.00,,,0.00,0.000000,,2013-04-06 09:22:00,
2013-04-05 23:32:00,54.0,51.0,-100.00,ESE,105,4.0,8.0,90,0.00,,,0.00,0.000000,,2013-04-06 09:32:00,
2013-04-05 23:42:00,54.0,51.0,-100.00,ESE,105,4.0,8.0,90,0.00,,,0.00,0.000000,,2013-04-06 09:42:00,
2013-04-05 23:52:00,54.0,51.0,-100.00,ESE,105,4.0,8.0,90,0.00,,,0.00,0.000000,,2013-04-06 09:52:00,